Voltar ao catálogo

SL-8 R/B

AtivoPO
NORAD 10992·ROCKET BODY·🇷🇺 Russia

Lançado Jul 27, 1978 de Plesetsk Cosmodrome

Loading…

Próximas Passagens (próximas 24 horas)

TLE

AtualizadoSource: Space-Track

Época: Sep 14, 2026, 00:30 UTC

1 10992U 78074B   26257.02110168 -.00000054  00000-0 -68889-4 0  9992
2 10992  82.9292 277.8996 0019721  28.3766 359.2827 13.78211739599567

Acompanhe SL-8 R/B em tempo real com AllMySat

Download on the App Store